User: anonymous   Login
Location: Caltech
(34.1382°N, 118.1253°W)
Time: 09:59:29
(UTC-07:00)
Language:

Iridium 62 - Orbit

View from above orbital plane
View from above orbital plane
View from above satellite
View from above satellite

Ground track
Ground track

The orbit data is extracted from the following two-line orbital elements,

1 25285U 98021A   16179.51054607  .00000017  00000-0 -87438-6 0  9999
2 25285  86.3950  12.1844 0002340  88.9825 271.1639 14.34215837954188
Epoch (UTC): 27 June 2016 12:15:11
Eccentricity: 0.0002340
inclination: 86.3950°
perigee height: 776 km
apogee height: 779 km
right ascension of ascending node: 12.1844°
argument of perigee: 88.9825°
revolutions per day: 14.34215837
mean anomaly at epoch: 271.1639°
orbit number at epoch: 95418

The dashed part of the orbit path shows where the satellite is in the earth's shadow,  

DLR